Satellite-Ground Cal/Val Site Overpasses Predictions

Prediction of Satellite NPP Overpassing Cal/Val Site: Antarctic Dome C

Ground Cal/Val Site Location: Latitude: -75.10, Longitude: 123.35; Satellite-Ground Site NADIR distance within 100 km.

Table of predicted overpasses for the next 14.0 days since TLE Epoch: 9/22/2017
Interval Starting Time Ending Time Minimum Distance Time Minimum Distance (km)
1 09/23/2017 07:31:58 09/23/2017 07:32:27 09/23/2017 07:32:13 2.81
2 09/26/2017 14:55:27 09/26/2017 14:55:55 09/26/2017 14:55:41 22.70
3 09/27/2017 14:36:45 09/27/2017 14:37:01 09/27/2017 14:36:53 84.23
4 09/28/2017 07:38:19 09/28/2017 07:38:46 09/28/2017 07:38:32 34.79
5 09/29/2017 07:19:33 09/29/2017 07:19:52 09/29/2017 07:19:43 75.27
6 10/01/2017 15:01:49 10/01/2017 15:02:12 10/01/2017 15:02:01 59.93
7 10/02/2017 14:43:00 10/02/2017 14:43:25 10/02/2017 14:43:12 49.22
8 10/03/2017 07:44:40 10/03/2017 07:45:01 10/03/2017 07:44:51 70.10
9 10/04/2017 07:25:49 10/04/2017 07:26:16 10/04/2017 07:26:02 37.87


NCC Satellite Cal/Val Overpasses Prediction Service
